Showing default

QIANFAN-39, 62240

Orbit data source: Space-Track

QIANFAN-39, 62240 is a Chinese payload satellite in LEO that was launched on Thu, 05 Dec 2024 UTC via a CHANG ZHENG 6A launch vehicle from the Taiyaun Space Center, China (TSC). Payload-class satellites include a variety of spacecraft equipped with specific instruments for various scientific and technological missions. These include communications satellites like Starlink; space stations such as the ISS; scientific satellites like the Hubble; Earth observation satellites from companies like Planet Labs, Umbra, and HawkEye 360; GPS; miniature CubeSats for education and research; and military/defense satellites.

Loading next visibility...
Identifier
62240, 2024-232D
Orbit
LEO
Last TLE update
12 hours ago
Origin
Manufacturer
SECM
Mission
Operational Commercial Communications
Bus & Motor
QIANFAN, Unknown motor
Mass
267 kg wet, ~267 kg dry
Launch date (UTC)
2024-12-05 (7 months ago)
Launch vehicle
CHANG ZHENG 6A
Launch site
Taiyaun Space Center, China (TSC)
Object type
Payload
Rocket body
Debris
Shape & HBR
Box + 1 Pan, 10 m
Radar Cross Section
13.200 m², Large (>1 m²)

Expand to show TLE details & history

TLE from 12 hours ago
0 QIANFAN-39
1 62240U 24232D   25188.88017113  .00000267  00000-0  10757-3 0  9998
2 62240  88.9945  55.4080 0014082 231.4280 128.5652 14.25219249 78908
Epoch: 2025-07-07T21:07Z
TLE epoch observation values (Epoch: 2025-07-07T21:07:26.785Z)
Latitude
-0.00004°
Longitude
172.46323°
Altitude
817.134 km
Speed
7.441 km/s
True Right ascension
03h 41m 37s
True Declination
0° 00' 00"
Sunlit
Object was in daylight at epoch
Visualization orbit readout
Latitude
44.65123°
Longitude
173.39394°
Altitude
824.672 km
Speed
7.44 km/s
Apparent Right ascension
06h 24m 48s
Apparent Declination
7° 17' 31"
Sunlit
Object is in daylight
Visualization observer readout
Local Sidereal Time
21:13:30
Azimuth
49.488° ENE
Elevation
-28.84°
Doppler factor
1
Orbital elements
Apogee altitude
814.814 km
Perigee altitude
794.584 km
Semi-major axis
7,182.836 km
Eccentricity
0.00141
Inclination
88.9945°
RAAN
55.408°
Arg. of periapsis
231.428°
True anomaly
Unknown
Mean anomaly
128.5652°
Eccentric anomaly
Unknown
Mean motion
3.56533 °/min
Orbital period
100.97 mins
BSTAR
0.00010757
Loading maneuver chart data...
Loading SW <> Apogee altitude chart data...
Loading historical data...
Loading historical data...
Loading historical data...
Loading historical data...
Loading historical data...
Loading historical data...
Loading historical data...

QIANFAN-39 Visibility forecast

Observer location: undefined°, undefined°

Span
Click to sort rows by Start time (UTC) header in descending order
Start Az.
Max El. time (UTC)
Max El. Az.
Max El.
End time (UTC)
End Az.
4 mins2025-07-08 14:08:40.321Z94.387° ESE2025-07-08 14:10:40.321Z70.542° E13.566°2025-07-08 14:12:40.321Z47.688° ENE
9 mins2025-07-08 15:46:40.321Z189.304° SSW2025-07-08 15:50:40.321Z263.013° W42.964°2025-07-08 15:55:40.321Z353.239° N
6 mins2025-07-09 02:22:40.321Z42.569° NE2025-07-09 02:25:40.321Z86.791° E21.4°2025-07-09 02:28:40.321Z126.547° SE
8 mins2025-07-09 04:02:40.321Z339.788° N2025-07-09 04:06:40.321Z272.731° WNW32.466°2025-07-09 04:10:40.321Z213.697° SW
|